This demonstration page uses our WeatherBlox Daily Observations layout. Learn more.

Left ArrowRight Arrow

39.08367, -84.50855

Hourly Observations for December 7, 2016

Temp ( °F °C ) Dew Point ( °F °C ) Humidity (%) Winds ( mph kmh ) Pressure ( in mb ) Visibility ( mi km ) Precip ( " mm )
12:53 am 00:53 Clear 35 1.7 30 -1.1 82 82 Calm 30.06 1018 10 16 0.00 0.00
1:27 am 01:27 Mostly Cloudy 36 2.2 31 -0.6 82 82 W 3 6 30.09 1019 10 16 0.00 0.00
1:53 am 01:53 Mostly Cloudy 36 2.2 30 -1.1 79 79 NNW 5 7 30.09 1019 10 16 0.00 0.00
2:53 am 02:53 Mostly Cloudy 35 1.7 29 -1.7 78 78 W 7 11 30.11 1020 10 16 0.00 0.00
3:32 am 03:32 Mostly Clear 34 1.1 29 -1.7 82 82 W 7 11 30.12 1020 10 16 0.00 0.00
4:53 am 04:53 Clear 34 1.1 27 -2.8 76 76 W 5 7 30.14 1021 10 16 0.00 0.00
5:53 am 05:53 Clear 33 0.6 24 -4.4 70 70 WNW 7 11 30.15 1021 10 16 0.00 0.00
6:53 am 06:53 Clear 32 0 23 -5 69 69 W 3 6 30.16 1021 10 16 0.00 0.00
7:53 am 07:53 Sunny 32 0 24 -4.4 73 73 Calm 30.18 1022 10 16 0.00 0.00
8:53 am 08:53 Sunny 34 1.1 23 -5 64 64 WNW 7 11 30.21 1023 10 16 0.00 0.00
9:53 am 09:53 Sunny 36 2.2 24 -4.4 62 62 SW 8 13 30.22 1024 10 16 0.00 0.00
10:53 am 10:53 Sunny 37 2.8 23 -5 57 57 VRB 5 7 30.23 1024 10 16 0.00 0.00
11:53 am 11:53 Partly Cloudy 39 3.9 25 -3.9 57 57 S 6 9 30.20 1023 10 16 0.00 0.00
12:53 pm 12:53 Partly Cloudy 41 5 25 -3.9 53 53 SW 7 11 30.16 1021 10 16 0.00 0.00
1:53 pm 13:53 Cloudy 41 5 24 -4.4 51 51 W 7 11 30.15 1021 10 16 0.00 0.00
2:53 pm 14:53 Cloudy 40 4.4 24 -4.4 53 53 W 9 15 30.16 1021 10 16 0.00 0.00
3:53 pm 15:53 Cloudy 40 4.4 22 -5.6 49 49 W 12 19 30.16 1021 10 16 0.00 0.00
4:53 pm 16:53 Cloudy 39 3.9 24 -4.4 55 55 WNW 8 13 30.16 1021 10 16 0.00 0.00
5:53 pm 17:53 Cloudy 38 3.3 23 -5 55 55 W 5 7 30.17 1022 10 16 0.00 0.00
6:53 pm 18:53 Mostly Cloudy 35 1.7 25 -3.9 67 67 SW 6 9 30.17 1022 10 16 0.00 0.00
7:53 pm 19:53 Cloudy 38 3.3 25 -3.9 60 60 W 9 15 30.19 1022 10 16 0.00 0.00
8:53 pm 20:53 Cloudy 37 2.8 25 -3.9 62 62 WSW 6 9 30.19 1022 10 16 0.00 0.00
9:53 pm 21:53 Cloudy 37 2.8 24 -4.4 59 59 WNW 9 15 30.19 1022 10 16 0.00 0.00
10:53 pm 22:53 Cloudy 36 2.2 24 -4.4 62 62 W 9 15 30.19 1023 10 16 0.00 0.00
11:53 pm 23:53 Cloudy 36 2.2 24 -4.4 62 62 WNW 7 11 30.19 1022 10 16 0.00 0.00

Powered by AerisWeather